Theta_e
325 326 327 326 326 325 325 325 325 326 327 327 328 327 327 326 324 324 323 324 326 324 314 312 311 311 310 309 309 309 309 308 307 307 307 306 306 305 304 304 304 305 305 305
325 325 324 324 324 324 325 327 328 327 326 326 328 328 328 326 323 323 323 322 323 321 316 312 310 309 309 309 308 308 307 307 305 305 305 305 305 305 304 304 304 303 304 305
327 323 322 322 323 325 326 327 328 328 327 327 328 329 329 325 323 322 321 320 320 320 318 314 312 310 309 308 308 307 307 307 306 305 305 305 304 304 303 303 303 304 305 305
324 323 324 324 324 324 327 326 326 326 328 330 328 330 328 326 324 322 322 321 320 319 318 316 313 312 309 308 308 307 306 305 305 304 304 304 303 303 302 302 302 303 304 304
321 323 323 323 324 324 325 325 325 326 328 329 329 331 328 325 324 321 320 320 320 318 316 316 314 312 310 309 307 306 305 304 304 307 306 303 300 301 301 301 302 303 304 304
321 322 322 321 323 324 325 325 327 328 329 332 329 330 328 328 325 320 318 318 318 317 316 315 314 312 311 309 307 306 305 308 305 303 300 300 301 299 300 301 302 302 302 303
323 323 322 322 323 323 324 327 329 329 332 331 328 329 328 327 322 319 319 320 319 317 317 315 314 313 311 309 307 306 308 306 304 303 301 299 299 299 300 302 302 302 302 302
324 326 327 325 326 327 327 326 327 329 328 327 327 328 328 324 320 317 316 317 318 318 316 315 313 312 312 310 308 307 307 305 304 303 304 304 302 300 301 302 301 301 301 302
325 326 325 325 326 328 330 330 328 331 330 333 328 327 326 321 319 318 319 318 320 319 318 316 314 312 312 311 308 308 306 306 305 304 306 304 303 302 301 301 300 300 301 301
325 326 326 326 325 325 328 326 331 330 334 331 326 328 328 324 322 320 322 322 321 320 318 317 315 312 311 310 308 307 307 307 304 307 306 305 304 302 300 299 299 299 300 300
324 327 328 326 327 329 328 328 329 329 332 339 340 331 324 323 322 323 322 321 320 319 319 318 315 312 310 309 308 307 306 305 307 307 306 307 303 301 300 300 299 299 299 300
327 328 329 328 326 325 327 329 328 328 327 330 330 331 323 323 321 321 321 320 318 318 316 313 310 309 308 307 306 304 305 305 306 306 307 307 304 301 301 301 300 300 299 299
329 330 332 331 328 327 328 328 326 327 325 328 331 327 322 321 321 322 318 318 316 313 311 310 308 306 305 305 304 304 304 304 306 308 306 305 304 302 302 301 301 300 299 299
326 328 328 329 326 324 325 326 326 327 330 327 327 325 323 322 322 320 315 316 314 312 310 310 310 308 307 306 306 307 307 305 304 304 303 303 303 302 302 301 301 300 300 299
323 325 325 323 323 323 324 324 324 326 325 328 326 324 322 322 318 312 313 309 306 305 304 303 303 302 301 300 300 300 300 300 300 300 300 301 300 300 300 300 300 300 300 300
324 324 324 319 320 319 321 322 322 322 322 322 322 324 318 312 309 306 304 303 303 303 302 302 301 300 299 299 298 298 298 298 298 298 298 297 297 297 297 297 297 297 298 299
323 324 323 323 319 319 321 322 321 320 320 321 324 321 316 311 307 305 303 302 302 302 301 300 299 298 296 296 295 295 295 294 294 293 293 292 292 292 292 293 293 294 294 295
322 322 323 323 321 324 319 317 317 318 319 319 319 319 316 309 305 303 303 303 301 300 299 298 296 296 295 293 293 292 292 292 290 289 288 288 287 287 288 288 289 289 290 291
319 320 325 326 323 320 317 317 319 320 319 312 313 309 307 304 304 303 301 300 299 298 295 295 295 294 292 290 289 289 289 287 286 286 286 286 286 286 286 287 287 288 288 288
316 317 322 324 324 320 318 312 308 313 321 308 307 307 303 302 305 307 300 298 296 294 294 293 292 291 289 287 287 287 286 286 285 285 285 285 285 285 285 285 286 286 287 287
319 318 321 322 324 322 318 313 311 323 323 305 303 302 303 305 306 303 298 296 294 293 292 289 288 287 286 286 286 286 285 285 284 284 284 284 284 284 284 284 284 284 285 286
319 320 320 320 326 321 312 311 320 317 308 305 302 303 304 304 301 299 297 294 293 291 288 286 286 286 285 285 285 285 285 284 284 283 283 283 283 283 283 283 283 283 284 285
319 318 321 320 320 315 311 313 311 310 311 305 302 302 303 303 301 297 295 293 291 288 286 285 285 285 284 284 284 285 284 283 282 282 281 282 281 282 282 282 282 282 282 283
316 316 319 319 318 318 316 314 311 307 305 301 302 301 303 302 299 296 293 290 287 286 285 284 284 284 284 284 284 284 283 281 280 280 280 281 280 280 281 281 281 281 281 281
317 317 318 318 317 317 316 314 313 305 302 299 299 301 300 299 296 293 290 287 285 284 284 284 284 284 284 283 283 282 281 280 279 279 280 280 279 280 280 280 280 279 279 279
314 317 319 318 315 315 315 312 307 303 301 298 299 296 294 292 290 288 287 285 284 284 284 284 283 283 283 282 281 280 279 278 278 279 278 278 278 278 278 278 279 278 278 278
Wind_Speed
3 8 8 8 6 7 6 7 11 10 3 6 4 7 5 5 3 1 2 5 7 8 9 10 10 10 11 12 13 13 12 9 7 6 5 6 7 5 8 8 11 10 10 11
7 11 8 6 8 9 9 9 10 8 3 6 4 9 4 3 4 3 1 5 8 9 10 10 12 12 12 12 12 13 13 11 10 8 7 6 6 4 7 10 8 10 10 10
11 5 3 3 5 8 10 12 9 11 7 11 8 12 6 6 6 4 3 2 6 10 12 13 16 16 14 15 14 13 11 10 10 12 10 7 5 6 8 10 9 9 9 9
9 7 8 9 12 10 10 7 12 10 7 8 0 8 5 6 8 6 5 4 6 8 12 13 18 19 18 17 15 12 10 8 8 10 11 10 5 7 10 12 12 11 9 7
4 6 6 7 4 8 5 1 5 7 9 10 12 7 7 9 7 7 5 4 4 7 11 13 18 20 20 18 16 14 12 10 7 3 4 9 6 7 11 12 14 14 13 11
14 3 7 9 4 8 2 10 6 6 8 11 15 14 10 6 9 8 4 2 4 8 9 12 16 19 22 19 18 16 14 8 8 5 6 7 5 6 8 10 12 11 11 11
6 11 10 5 12 14 11 10 7 7 6 10 5 6 11 7 8 7 5 6 3 5 7 9 13 20 23 22 21 17 13 10 8 6 4 2 1 5 9 10 12 13 13 12
3 5 1 1 3 3 3 7 7 10 11 11 7 7 3 4 8 4 1 2 4 5 3 7 13 18 22 23 22 19 15 12 10 8 4 5 6 7 9 11 13 15 15 15
3 3 3 5 1 4 4 3 5 7 3 7 10 5 9 7 5 5 2 3 7 10 11 9 11 15 20 23 23 20 16 13 11 6 5 8 7 10 12 13 13 16 16 17
1 4 0 2 2 6 4 4 3 2 5 11 6 6 9 7 7 5 3 6 12 15 12 10 12 13 15 20 21 19 15 13 10 5 7 11 11 14 15 16 18 17 18 19
2 4 6 3 1 4 1 2 4 5 4 5 6 6 6 7 6 4 6 11 13 10 10 11 11 10 12 14 17 14 12 12 7 6 13 22 17 16 16 17 18 18 19 19
2 1 5 2 4 2 1 3 2 2 4 4 3 8 10 5 3 8 11 11 9 10 10 10 12 10 6 4 7 11 10 9 8 14 24 25 22 19 20 20 20 19 20 20
2 2 4 5 4 5 3 3 4 2 2 6 4 6 5 5 10 7 8 8 7 9 10 11 14 12 9 5 3 2 2 9 22 26 26 20 21 22 22 22 22 21 21 21
3 1 5 7 8 4 5 6 9 10 4 12 16 24 21 17 10 6 5 6 6 8 11 12 12 14 13 11 11 12 14 16 17 17 18 22 21 21 22 23 23 24 24 24
3 4 5 9 10 10 10 12 14 18 19 16 23 22 21 17 6 3 5 7 9 11 12 12 12 14 16 16 16 15 14 15 16 15 15 16 18 21 23 25 26 27 27 27
0 4 1 5 11 12 13 17 19 20 21 21 20 20 9 7 8 6 7 7 9 9 10 10 11 13 14 14 15 14 15 16 16 15 15 16 18 19 21 22 23 25 27 28
3 2 2 6 7 7 11 18 17 13 11 13 14 10 6 3 5 6 6 7 8 7 8 9 11 13 13 15 15 15 16 16 17 17 18 20 21 22 23 25 26 27 28 29
5 5 4 5 8 5 1 1 5 10 15 15 16 14 1 3 8 8 7 6 6 6 7 9 10 11 12 14 15 15 16 16 18 19 21 22 23 24 25 26 27 28 29 31
9 5 3 3 7 12 18 6 4 3 12 8 8 3 6 11 10 8 6 6 6 6 7 7 8 9 10 13 14 14 14 15 16 18 19 21 22 24 25 25 26 28 29 31
4 4 3 2 3 5 2 4 1 2 10 2 2 2 5 8 6 2 5 5 6 6 6 7 8 9 11 13 14 14 15 15 17 19 21 21 22 24 26 26 28 28 29 30
4 3 8 7 6 7 7 3 3 3 2 4 5 6 5 5 2 8 7 5 4 4 6 8 8 9 10 12 13 13 14 16 19 21 22 24 25 26 26 27 29 30 31 32
10 8 5 7 5 10 6 6 5 2 1 5 7 6 4 4 7 8 6 4 2 4 6 7 8 8 10 12 13 15 15 18 21 24 25 26 26 27 27 29 29 30 31 31
7 8 4 8 5 4 5 5 1 3 4 7 9 6 6 7 7 7 4 2 2 4 6 7 9 9 10 12 14 16 17 21 25 26 27 27 28 28 27 28 30 29 29 29
10 2 5 5 8 7 6 7 6 5 5 9 7 6 6 7 8 6 3 2 2 4 5 7 8 9 11 12 13 16 19 22 25 26 27 27 28 29 28 29 28 29 29 29
2 6 7 4 12 15 16 13 8 6 8 8 6 7 7 8 7 5 3 3 2 2 5 6 8 10 11 13 15 18 20 22 25 26 27 27 27 29 30 30 29 30 28 27
7 9 5 5 12 9 13 6 8 11 11 11 11 10 8 8 7 6 5 4 2 3 5 7 9 10 12 13 16 19 20 22 24 26 26 28 29 30 30 32 33 28 28 29
Wind_Direction
200 245 239 292 305 301 278 268 273 277 299 290 289 290 307 23 326 288 192 178 178 174 154 154 149 150 149 147 147 142 135 127 118 115 103 87 70 27 22 15 18 11 5 357
232 251 305 281 273 256 254 266 275 280 133 274 304 293 337 52 67 24 339 181 184 170 177 172 168 168 170 168 166 160 153 140 123 106 92 71 60 20 10 6 359 3 5 3
255 281 283 270 276 249 243 265 278 285 308 260 270 257 180 119 116 95 85 92 173 194 195 189 188 189 185 184 183 175 161 142 126 117 102 69 39 9 356 346 343 342 354 358
260 264 257 260 261 247 259 250 262 277 278 280 79 289 192 152 123 100 103 136 163 194 208 204 201 197 195 193 186 179 164 147 130 118 102 86 46 13 355 340 335 332 325 332
216 205 219 254 278 200 254 81 285 282 267 278 240 262 244 167 166 114 89 99 152 203 207 214 214 210 205 196 192 182 171 164 160 175 109 91 63 339 332 334 331 327 323 321
265 269 262 268 230 211 169 278 249 246 261 251 252 249 275 203 184 134 112 113 179 201 212 225 222 217 211 202 197 190 183 206 185 171 134 106 21 334 327 314 308 307 298 291
227 240 247 261 261 245 249 262 271 246 213 259 55 258 257 112 132 121 104 79 125 183 214 223 223 218 218 208 202 197 204 198 196 179 134 129 222 311 302 298 302 300 290 279
258 164 355 69 290 344 226 259 247 277 282 301 135 255 199 104 137 134 34 4 50 342 269 245 243 233 225 219 211 205 205 200 192 176 217 275 284 281 272 290 297 291 285 280
211 153 128 51 344 318 125 242 2 288 233 266 260 252 252 152 177 191 206 53 360 351 356 318 282 256 239 225 216 209 205 203 194 202 293 296 291 270 276 289 291 286 284 282
127 234 269 111 239 70 342 40 280 301 294 289 272 240 274 191 200 188 108 0 353 360 344 327 303 277 248 229 219 211 204 199 187 250 302 300 292 265 273 283 285 279 281 280
268 254 150 224 22 8 205 122 60 357 5 316 313 307 27 327 1 358 9 358 354 352 348 345 332 300 267 236 225 206 193 187 205 271 298 316 276 259 268 273 275 276 280 278
43 292 240 53 82 23 336 127 115 165 262 220 220 264 288 298 21 10 346 350 353 3 17 18 16 7 337 258 210 204 190 205 285 307 306 297 278 262 264 267 270 273 275 278
51 235 247 182 156 176 237 173 220 199 104 221 257 255 132 111 297 12 355 0 24 27 34 39 40 41 52 84 143 145 216 283 296 299 293 282 270 263 271 281 284 284 280 276
296 265 274 283 315 320 275 233 214 227 227 273 263 284 286 295 328 16 9 47 51 53 46 42 41 41 41 32 3 337 335 325 319 316 303 297 290 290 291 291 287 284 281 277
345 266 274 280 289 288 278 276 253 247 259 268 283 289 299 320 15 93 77 78 73 59 52 45 40 39 34 29 19 14 4 354 346 336 326 317 308 302 302 300 295 291 286 282
273 271 268 271 277 273 270 261 256 264 273 273 280 285 39 94 112 105 88 77 66 53 44 40 40 38 33 27 19 12 7 6 2 359 350 341 334 327 321 316 311 305 299 293
262 215 253 274 313 317 277 250 246 245 262 282 291 326 359 133 126 109 100 73 62 50 43 39 34 32 25 19 11 7 1 357 357 353 347 341 335 329 325 320 316 312 309 304
222 240 262 278 295 249 337 225 268 283 292 283 291 303 19 108 112 94 66 81 72 55 41 35 26 20 16 7 2 353 351 350 348 345 341 338 335 331 327 324 320 316 311 307
239 219 241 254 257 290 286 263 255 256 300 8 333 47 117 137 141 96 74 67 70 61 44 30 18 8 1 357 350 347 350 350 350 347 342 339 336 332 329 325 324 321 317 314
162 202 223 170 246 260 55 100 110 299 269 115 139 200 168 179 238 119 126 90 79 53 33 11 2 353 354 355 352 354 355 352 347 341 334 329 329 326 324 324 323 319 317 314
151 171 215 231 245 269 291 143 174 233 358 146 162 173 174 204 32 108 129 113 73 41 20 358 354 359 359 356 354 352 348 346 338 335 333 332 330 326 323 321 320 320 317 316
180 185 196 217 227 256 133 148 214 52 130 169 158 131 123 136 139 141 134 124 74 14 2 5 4 4 360 354 349 343 346 341 339 337 334 329 326 323 321 320 318 317 315 316
224 213 204 210 218 99 194 263 272 285 283 186 162 158 170 182 164 157 152 114 50 8 10 7 2 353 351 348 345 341 344 343 339 334 329 326 325 322 322 320 320 319 318 318
224 181 225 240 242 268 268 246 249 233 185 163 156 164 201 166 160 158 141 109 25 22 9 358 347 348 344 346 347 350 344 340 336 329 327 326 325 324 319 320 317 317 317 319
291 169 226 258 278 282 272 261 260 182 160 140 139 173 166 155 157 157 143 127 89 25 6 348 344 337 339 344 350 346 341 335 330 327 325 324 324 321 320 318 318 316 314 316
207 228 217 243 263 284 284 320 159 170 172 160 160 147 145 152 154 156 141 135 88 21 349 344 336 335 342 346 344 340 336 334 329 323 325 325 324 323 322 320 317 317 314 316